ND5T Weather Reports


Display with metric or nautical units.
time (UTC)temp
F
wind
direction
speed
MPH
gust
MPH
rain 1hr
in
rain 24hr
in
rain mn
in
humidity
%
barometer
mb
20260509211604 87 159 0.0 0.0 0.00 0.08 0.01 70 1007.9
20260509210018 88 159 0.0 1.0 0.00 0.08 0.01 68 1008.0
20260509204557 87 128 0.0 1.0 0.00 0.08 0.01 71 1008.2
20260509203002 87 128 0.0 0.0 0.00 0.08 0.01 73 1008.2
20260509201544 86 128 0.0 1.0 0.00 0.08 0.01 72 1008.5
20260509200004 85 167 0.0 1.0 0.00 0.08 0.01 72 1008.8
20260509194547 85 167 0.0 1.0 0.00 0.08 0.01 78 1008.9
20260509193056 83 159 0.0 1.0 0.00 0.08 0.01 79 1009.2
20260509191506 82 151 0.0 0.0 0.00 0.08 0.01 83 1009.3
20260509190106 83 150 0.0 1.0 0.00 0.08 0.01 82 1009.4
20260509184506 81 150 0.0 2.0 0.00 0.08 0.01 85 1009.7
20260509183035 80 150 0.0 0.0 0.00 0.08 0.01 87 1009.9
20260509181516 81 150 0.0 0.0 0.00 0.08 0.01 86 1010.0
20260509180100 81 150 0.0 1.0 0.00 0.08 0.01 84 1010.3
20260509174517 79 178 0.0 0.0 0.00 0.08 0.01 90 1010.4
20260509173031 79 178 0.0 2.0 0.00 0.08 0.01 89 1010.6
20260509171510 77 73 0.0 1.0 0.00 0.08 0.01 92 1010.4
20260509170131 77 73 0.0 0.0 0.00 0.08 0.01 94 1010.3
20260509164543 76 73 0.0 0.0 0.00 0.08 0.01 94 1010.3
20260509163111 76 73 0.0 0.0 0.00 0.08 0.01 95 1010.5
20260509161540 76 76 0.0 1.0 0.00 0.08 0.01 96 1010.6
20260509160046 75 76 0.0 0.0 0.00 0.08 0.01 97 1010.8
20260509154600 75 123 0.0 1.0 0.00 0.08 0.01 97 1010.6
20260509153016 75 122 0.0 0.0 0.00 0.08 0.01 97 1010.8
20260509151552 74 122 0.0 0.0 0.00 0.08 0.01 97 1010.9
20260509150046 74 135 0.0 0.0 0.00 0.08 0.01 97 1010.7
20260509144555 74 135 0.0 0.0 0.00 0.08 0.01 97 1010.8
20260509143110 74 135 0.0 0.0 0.00 0.08 0.01 97 1010.5
20260509141539 74 135 0.0 0.0 0.00 0.08 0.01 97 1010.2
20260509140121 73 135 0.0 0.0 0.00 0.08 0.01 97 1010.1
20260509134603 73 135 0.0 0.0 0.00 0.08 0.01 97 1010.6
20260509133030 73 136 0.0 1.0 0.00 0.08 0.01 97 1010.7
20260509131537 73 136 0.0 0.0 0.00 0.08 0.01 97 1010.8
20260509130055 73 136 0.0 0.0 0.00 0.08 0.01 97 1010.8
20260509124505 72 136 0.0 0.0 0.00 0.08 0.01 97 1010.7
20260509123058 72 136 0.0 0.0 0.00 0.08 0.01 97 1010.9
20260509121537 72 115 0.0 0.0 0.00 0.08 0.01 97 1010.5
20260509120121 72 116 0.0 0.0 0.00 0.08 0.01 97 1010.2
20260509114556 72 117 0.0 0.0 0.00 0.08 0.01 97 1009.9
20260509113050 72 117 0.0 0.0 0.00 0.08 0.01 97 1009.8
20260509111509 72 115 0.0 0.0 0.00 0.08 0.01 97 1010.2
20260509110045 72 115 0.0 0.0 0.00 0.08 0.01 97 1010.0
20260509104553 72 115 0.0 0.0 0.00 0.08 0.01 96 1010.4
20260509103051 72 115 0.0 0.0 0.00 0.08 0.01 96 1010.4
20260509101533 72 115 0.0 0.0 0.00 0.08 0.01 96 1009.6
20260509100105 72 115 0.0 0.0 0.00 0.08 0.01 96 1009.4
20260509094600 72 115 0.0 0.0 0.00 0.08 0.01 96 1009.3
20260509093015 72 115 0.0 0.0 0.00 0.08 0.01 96 1009.8
20260509091557 72 115 0.0 0.0 0.00 0.08 0.01 96 1009.7
20260509090051 72 115 0.0 0.0 0.00 0.08 0.01 96 1010.0
20260509084605 72 115 0.0 0.0 0.00 0.08 0.01 96 1009.8
20260509083030 72 115 0.0 0.0 0.01 0.08 0.01 96 1009.8
20260509081502 72 115 0.0 0.0 0.01 0.08 0.01 96 1009.9
20260509080142 72 115 0.0 0.0 0.01 0.08 0.01 96 1009.8
20260509074528 72 115 0.0 0.0 0.01 0.08 0.01 96 1010.0
20260509073126 72 115 0.0 0.0 0.00 0.07 0.00 96 1010.1
20260509071526 72 115 0.0 0.0 0.00 0.07 0.00 96 1010.1
20260509070005 71 115 0.0 0.0 0.00 0.07 0.00 96 1010.2
20260509064549 71 115 0.0 0.0 0.00 0.07 0.00 96 1010.0
20260509063104 71 115 0.0 0.0 0.00 0.07 0.00 96 1010.2
20260509061555 71 115 0.0 0.0 0.00 0.07 0.00 96 1010.3
20260509060108 71 115 0.0 0.0 0.00 0.07 0.00 96 1010.4
20260509054534 71 115 0.0 0.0 0.00 0.07 0.00 96 1010.6
20260509053034 71 115 0.0 0.0 0.00 0.07 0.00 96 1010.6
20260509051605 71 115 0.0 0.0 0.00 0.07 0.00 96 1010.6
20260509050118 71 115 0.0 0.0 0.00 0.07 0.00 96 1010.6
20260509044557 71 115 0.0 0.0 0.00 0.07 0.07 96 1010.6
20260509043054 71 115 0.0 0.0 0.00 0.07 0.07 96 1010.5
20260509041536 71 115 0.0 0.0 0.00 0.07 0.07 96 1010.7
20260509040106 71 115 0.0 0.0 0.00 0.07 0.07 96 1010.4
20260509034559 71 115 0.0 0.0 0.00 0.07 0.07 96 1010.4
20260509033056 71 115 0.0 0.0 0.00 0.07 0.07 96 1010.3
20260509031605 71 115 0.0 1.0 0.00 0.07 0.07 95 1010.2
20260509030122 71 115 0.0 2.0 0.00 0.07 0.07 95 1010.1
20260509024535 71 120 0.0 0.0 0.00 0.07 0.07 96 1010.1
20260509023059 71 120 0.0 0.0 0.00 0.07 0.07 95 1009.8
20260509021515 71 120 0.0 0.0 0.00 0.07 0.07 95 1010.0
20260509020001 71 120 0.0 0.0 0.00 0.07 0.07 95 1009.7
20260509014548 71 120 0.0 0.0 0.00 0.07 0.07 95 1009.8
20260509013107 71 120 0.0 0.0 0.00 0.07 0.07 95 1009.6
20260509011520 71 120 0.0 2.0 0.00 0.07 0.07 95 1009.5
20260509010059 71 26 0.0 1.0 0.00 0.07 0.07 95 1009.4
20260509004609 72 101 0.0 1.0 0.00 0.07 0.07 94 1009.4
20260509003047 72 101 0.0 1.0 0.00 0.07 0.07 95 1009.6
20260509001507 72 105 0.0 1.0 0.01 0.07 0.07 94 1009.5
20260509000057 72 117 0.0 2.0 0.05 0.07 0.07 94 1009.6
20260508234521 73 105 0.0 1.0 0.07 0.07 0.07 94 1009.8
20260508233003 73 111 0.0 0.0 0.07 0.07 0.07 93 1009.9
20260508231511 73 111 0.0 0.0 0.07 0.07 0.07 91 1009.7
20260508230108 74 111 0.0 0.0 0.00 0.00 0.01 89 1009.7
20260508224557 74 111 0.0 1.0 0.00 0.00 0.00 88 1009.6
20260508223101 75 111 0.0 0.0 0.00 0.00 0.00 88 1009.6
20260508221542 75 111 0.0 1.0 0.00 0.00 0.00 87 1009.7
20260508220125 75 113 0.0 0.0 0.00 0.00 0.00 87 1009.7
20260508214549 75 113 0.0 0.0 0.00 0.00 0.00 86 1009.9
20260508213045 76 113 0.0 0.0 0.00 0.00 0.00 86 1009.8